Tracking 20945 objects as of 9-Jul-2020
HD Live streaming from Space Station
objects crossing your sky now

TIROS 4

Track TIROS 4 now!
10-day predictions
TIROS 4 is classified as:


NORAD ID: 226
Int'l Code: 1962-002A
Perigee: 691.0 km
Apogee: 802.8 km
Inclination: 48.3 °
Period: 99.6 minutes
Semi major axis: 7117 km
RCS: 0.8251 m2 (medium)
Launch date: February 8, 1962
Source: United States (US)
Launch site: AIR FORCE EASTERN TEST RANGE (AFETR)
aabbcc
Your satellite tracking list
Your tracking list is empty




NASA's NSSDC Master Catalog

Two Line Element Set (TLE):
1   226U 62002A   20190.85086155 -.00000144 +00000-0 +81783-5 0  9992
2   226 048.2971 095.8340 0078526 324.5489 035.0206 14.45678718054461
Source of the keplerian elements: AFSPC